Hettinger, ND

4:43 AM MDT on May 30, 2017 (GMT -0600)
Hettinger Municipal

Weather History for KHEI - March, 2012

Change the Weather History Date:

Wednesday, March 14, 2012

  Actual Average Record
Temperature  
Mean Temperature 41 °F -  
Max Temperature 55 °F 40 °F 70 °F (2015)
Min Temperature 27 °F 18 °F -8 °F (1997)
Degree Days  
Heating Degree Days 24 36  
Month to date heating degree days 389 539  
Since 1 July heating degree days 6034 6855  
Cooling Degree Days 0 0  
Month to date cooling degree days 0 0  
Year to date cooling degree days 0 0  
Moisture  
Dew Point 13 °F    
Average Humidity 32    
Maximum Humidity 63    
Minimum Humidity 13    
Precipitation  
Precipitation 0.00 in 0.03 in 0.22 in (2007)
Month to date precipitation 0.09 0.26  
Year to date precipitation 0.70 0.99  
Sea Level Pressure  
Sea Level Pressure 29.91 in    
Wind  
Wind Speed 8 mph (East)    
Max Wind Speed 29 mph    
Max Gust Speed 38 mph    
Visibility 10 miles    
Events      
T = Trace of Precipitation, MM = Missing Value Source: NWS Daily Summary

Daily Weather History Graph

Daily Weather History Graph

Search for Another Location

Airport or City:

Trip Planner

Search our weather history database for the weather conditions in past years. The results will help you decide how hot, cold, wet, or windy it might be!

Date:

Astronomy

Mar. 14, 2012 Rise Set
Actual Time 7:04 AM MDT 6:55 PM MDT
Civil Twilight 6:34 AM MDT 7:25 PM MDT
Nautical Twilight 5:59 AM MDT 8:00 PM MDT
Astronomical Twilight 5:24 AM MDT 8:36 PM MDT
Moon 1:54 AM MDT (3/14) 10:55 AM MDT (3/14)
Length of Visible Light 12h 51m
Length of Day
11h 51m
Waning Gibbous, 54% of the Moon is Illuminated
Mar 14
Waning Gibbous
Mar 14
Last Quarter
Mar 22
New
Mar 30
First Quarter
Apr 6
Full

Hourly Weather History & Observations

Time (MDT) Temp. Windchill Dew Point Humidity Pressure Visibility Wind Dir Wind Speed Gust Speed Precip Events Conditions
12:53 AM 51.1 °F - 26.1 °F 38% 29.63 in 10.0 mi NW 32.2 mph 41.4 mph N/A   Clear
2:53 AM 39.9 °F 32.9 °F 23.0 °F 51% 29.75 in 10.0 mi NW 11.5 mph - N/A   Clear
3:53 AM 37.0 °F 31.6 °F 21.0 °F 52% 29.81 in 10.0 mi NW 6.9 mph - N/A   Clear
4:53 AM 33.1 °F 27.7 °F 19.9 °F 59% 29.84 in 10.0 mi NW 5.8 mph - N/A   Clear
5:53 AM 35.1 °F 27.4 °F 16.0 °F 46% 29.83 in 10.0 mi NNW 10.4 mph - N/A   Clear
6:53 AM 28.9 °F 23.9 °F 15.1 °F 56% 29.93 in 10.0 mi West 4.6 mph - N/A   Clear
7:53 AM 28.9 °F 25.2 °F 17.1 °F 61% 29.97 in 10.0 mi WSW 3.5 mph - N/A   Clear
8:53 AM 37.9 °F 34.4 °F 16.0 °F 41% 29.99 in 10.0 mi West 4.6 mph - N/A   Clear
9:53 AM 44.1 °F 39.0 °F 9.0 °F 24% 29.98 in 10.0 mi NNW 9.2 mph - N/A   Clear
10:53 AM 48.0 °F - 3.0 °F 16% 29.98 in 10.0 mi ENE 4.6 mph - N/A   Clear
11:53 AM 48.0 °F - 1.9 °F 15% 29.99 in 10.0 mi East 4.6 mph - N/A   Clear
12:53 PM 50.0 °F - 1.0 °F 13% 29.96 in 10.0 mi South 6.9 mph - N/A   Clear
1:53 PM 51.1 °F - 3.9 °F 15% 29.93 in 10.0 mi SE 8.1 mph - N/A   Clear
2:53 PM 53.1 °F - 3.9 °F 14% 29.91 in 10.0 mi SE 10.4 mph - N/A   Clear
3:53 PM 53.1 °F - 8.1 °F 16% 29.92 in 10.0 mi SE 11.5 mph - N/A   Clear
4:53 PM 53.1 °F - 9.0 °F 17% 29.94 in 10.0 mi SE 10.4 mph - N/A   Clear
5:53 PM 52.0 °F - 10.9 °F 19% 29.94 in 10.0 mi SE 5.8 mph - N/A   Partly Cloudy
6:53 PM 50.0 °F - 12.9 °F 23% 29.95 in 10.0 mi East 8.1 mph - N/A   Scattered Clouds
7:53 PM 45.0 °F 40.6 °F 15.1 °F 30% 29.96 in 10.0 mi East 8.1 mph - N/A   Clear
8:53 PM 45.0 °F 39.7 °F 15.1 °F 30% 29.95 in 10.0 mi East 10.4 mph - N/A   Clear
9:53 PM 41.0 °F 35.2 °F 14.0 °F 33% 29.95 in 10.0 mi ESE 9.2 mph - N/A   Clear
10:53 PM 39.0 °F 34.0 °F 15.1 °F 38% 29.95 in 10.0 mi East 6.9 mph - N/A   Clear
11:53 PM 37.9 °F - 15.1 °F 39% 29.97 in 10.0 mi Calm Calm - N/A   Partly Cloudy